Regional Weather Roundup
Issued by NWS

Home | Current Version | Previous Version | Graphics & Text | Print | Product List | Glossary On
Versions: 1 2 3 4 5 6 7 8 9 10 11 12 13 14 15 16 17 18 19 20 21 22 23 24 25 26 27
000
ASUS45 KBOU 201807
RWRCO

WEATHER ROUNDUP FOR COLORADO
NATIONAL WEATHER SERVICE DENVER/BOULDER CO
1200 PM MDT FRI OCT 20 2017

NOTE: "FAIR" INDICATES FEW OR NO CLOUDS BELOW 12000 FEET WITH NO
SIGNIFICANT WEATHER AND/OR OBSTRUCTIONS TO VISIBILITY.

COZ001>005-013-030-031-201900-
...NORTHWEST COLORADO...

CITY           SKY/WX    TMP DP  RH WIND       PRES   REMARKS
CRAIG          FAIR      68  30  24 SW28G38   29.72F
HAYDEN         FAIR      65  31  28 SW26G37   29.73F
MEEKER         FAIR      65  32  29 S22G36    29.75F
RABBIT EARS PA FAIR      48  32  53 SW7G20    29.94F
STEAMBOAT SPGS FAIR      62  33  33 SW3       29.74F
WALDEN         NOT AVBL
$$

COZ006>008-011-201900-
...WEST CENTRAL VALLEYS...

CITY           SKY/WX    TMP DP  RH WIND       PRES   REMARKS
GRAND JUNCTION FAIR      73  35  25 S20G32    29.74S
MONTROSE       FAIR      68  29  23 SW20G29   29.80F
EAGLE          FAIR      64  30  27 SW30G41   29.79F
RIFLE          PTSUNNY   65  36  34 W9        29.75F
DELTA          FAIR      73  33  23 SW10      29.79F
NUCLA          NOT AVBL
$$

COZ017>023-064>068-201900-
...SOUTHWEST COLORADO...

CITY           SKY/WX    TMP DP  RH WIND       PRES   REMARKS
DURANGO        PTSUNNY   59  40  49 VRB7      29.98F
CORTEZ         FAIR      68  36  30 SW17G24   29.92F
PAGOSA SPRINGS PTSUNNY   58  35  41 S5        30.02F
TELLURIDE      NOT AVBL
WOLF CREEK PAS PTSUNNY   32  32 100 S35G44    30.13F WCI  17
$$

COZ009-010-012-014-032>034-037-058>063-201900-
...CENTRAL COLORADO...

CITY           SKY/WX    TMP DP  RH WIND       PRES   REMARKS
ASPEN          FAIR      62  21  20 S13G21    29.84F
BUENA VISTA    FAIR      61  28  28 SE16G23   29.86F
COPPER MTN     FAIR      46  23  39 S13G26    30.05S
BERTHOUD PASS  FAIR      36  28  75 W14G41    30.06S
COTTONWOOD PAS FAIR      57  32  38 SE6       29.97F
GUNNISON       FAIR      56  28  34 CALM      29.90F
KREMMLING      FAIR      64  30  27 W7        29.81F
LEADVILLE      FAIR      51  19  28 S10G25    29.93F
MONARCH PASS   FAIR      41  27  56 SW31G43   30.17F
SALIDA         FAIR      62  32  32 S17G28    29.92F
SUNLIGHT       FAIR      45  30  57 SW14G28   30.01F
WILKERSON PASS FAIR      46  21  36 SW17G26   30.03F
$$

COZ069>075-201900-
...SAN LUIS VALLEY/SANGRE DE CRISTO MOUNTAINS...

CITY           SKY/WX    TMP DP  RH WIND       PRES   REMARKS
ALAMOSA        FAIR      64  27  24 SW23      29.94F
DEL NORTE      FAIR      59  30  32 SW16G24   29.95F
LA VETA PASS   FAIR      50  32  50 MISG      30.10F
SAGUACHE       FAIR      55  34  44 S8        29.94F
$$

COZ035-036-038>040-201900-
...NORTHERN COLORADO FRONT RANGE...

CITY           SKY/WX    TMP DP  RH WIND       PRES   REMARKS
DENVER INTL AP FAIR      73  28  18 S9        29.68F
DMNS CITY PARK   N/A     73  29  19 E13G18    29.64F
AURORA         MOSUNNY   72  32  22 SW14G22   29.70F
FRONT RANGE AP MOSUNNY   75  28  17 SW6       29.70F
ERIE MUNI ARPT FAIR      73  32  21 E5        29.69F
BOULDER MUN AP FAIR      73  32  21 CALM      29.63F
CENTENNIAL     FAIR      71  30  21 SW14G23   29.71F
BROOMFIELD     MOSUNNY   73  30  20 SE12      29.68F
FORT COLLINS   FAIR      69  43  38 SE8       29.64F
LONGMONT       FAIR      74  37  26 E8        29.65F
$$

COZ041-046-047-076>085-087-088-201900-
...PIKES PEAK/PALMER DIVIDE AND SOUTHERN FOOTHILLS...

CITY           SKY/WX    TMP DP  RH WIND       PRES   REMARKS
COLO. SPRINGS  FAIR      72  28  19 SE3       29.77F
A. F. ACADEMY  FAIR      71  28  20 SW12G28   29.77F
SCHRIEVER AFB  FAIR      69  28  20 CALM      29.77F
CHEYENNE MTN   FAIR      67  27  22 N5        29.75F
ELLICOTT       FAIR     N/A N/A N/A W8        29.75F
FALCON         FAIR      70  24  17 W12G21    29.81F
FORT CARSON    FAIR      73  31  21 SW21      29.74F
LIMON          FAIR      74  27  17 MISG      29.71F
MONUMENT HILL  FAIR      66  30  26 W17G30    29.82F
CANON CITY     SUNNY     75  36  23 W17G24    29.75F
WALSENBURG     FAIR      73  36  25 W22G36    29.82S
TRINIDAD       FAIR      74  32  21 SW20      29.80F
$$

COZ042>045-048>051-090-091-201900-
...NORTHEAST COLORADO...

CITY           SKY/WX    TMP DP  RH WIND       PRES   REMARKS
GREELEY ARPT   FAIR      69  39  33 S9        29.64F
AKRON          FAIR      71  34  25 W10       29.66F
BURLINGTON     FAIR      70  41  34 S13       29.68F
WRAY           NOT AVBL
YUMA           NOT AVBL
STERLING       NOT AVBL
HOLYOKE        FAIR      68  48  49 S10       29.64F
FORT MORGAN    FAIR      73  28  19 SW6       29.66F
$$

COZ086-089-092>099-201900-
...SOUTHEAST COLORADO...

CITY           SKY/WX    TMP DP  RH WIND       PRES   REMARKS
PUEBLO         FAIR      77  34  21 W12G17    29.71F
LA JUNTA       FAIR      79  37  22 W10       29.69F
LAMAR          FAIR      74  45  35 MISG      29.68F
SPRINGFIELD    NOT AVBL
$$




USA.gov is the U.S. government's official web portal to all federal, state and local government web resources and services.